Bennington, VT

10:58 PM EDT on July 26, 2017 (GMT -0400)
Morse State

Weather History for KDDH - July, 2013

Change the Weather History Date:

Sunday, July 7, 2013

  Actual Average Record
Temperature  
Mean Temperature 76 °F 68 °F  
Max Temperature 89 °F 79 °F 91 °F (2010)
Min Temperature 63 °F 57 °F 46 °F (2000)
Degree Days  
Heating Degree Days 0 1  
Month to date heating degree days 0 7  
Since 1 June heating degree days 100 104  
Since 1 July heating degree days 0 7  
Cooling Degree Days 11 4  
Month to date cooling degree days 83 27  
Year to date cooling degree days 213 99  
Since 1 June cooling degree days 181 85  
Growing Degree Days 25 (Base 50)    
Moisture  
Dew Point 70 °F    
Average Humidity 73    
Maximum Humidity 93    
Minimum Humidity 53    
Precipitation  
Precipitation 0.17 in 0.13 in 0.54 in (2014)
Month to date precipitation 1.19 0.91  
Year to date precipitation 22.95 20.11  
Sea Level Pressure  
Sea Level Pressure 29.99 in    
Wind  
Wind Speed 1 mph (SW)    
Max Wind Speed 12 mph    
Max Gust Speed 14 mph    
Visibility 6 miles    
Events Rain , Thunderstorm    
T = Trace of Precipitation, MM = Missing Value Source: NWS Daily Summary

Daily Weather History Graph

Daily Weather History Graph

Search for Another Location

Airport or City:

Trip Planner

Search our weather history database for the weather conditions in past years. The results will help you decide how hot, cold, wet, or windy it might be!

Date:

Astronomy

Jul. 07, 2013 Rise Set
Actual Time 5:21 AM EDT 8:33 PM EDT
Civil Twilight 4:47 AM EDT 9:08 PM EDT
Nautical Twilight 4:02 AM EDT 9:52 PM EDT
Astronomical Twilight 3:08 AM EDT 10:46 PM EDT
Moon 4:57 AM EDT (7/7) 7:53 PM EDT (7/7)
Length of Visible Light 16h 21m
Length of Day
15h 11m
Waning Crescent, 0% of the Moon is Illuminated
Jul 7
Waning Crescent
Jul 8
New
Jul 15
First Quarter
Jul 22
Full
Jul 29
Last Quarter

Hourly Weather History & Observations

Time (EDT) Temp. Heat Index Dew Point Humidity Pressure Visibility Wind Dir Wind Speed Gust Speed Precip Events Conditions
12:54 AM 64.9 °F - 63.0 °F 93% 30.07 in 5.0 mi Calm Calm - N/A   Clear
1:54 AM 64.9 °F - 63.0 °F 93% 30.06 in 7.0 mi Calm Calm - N/A   Scattered Clouds
2:54 AM 64.9 °F - 63.0 °F 93% 30.05 in 4.0 mi Calm Calm - N/A   Scattered Clouds
3:54 AM 64.9 °F - 63.0 °F 93% 30.04 in 5.0 mi Calm Calm - N/A   Clear
4:54 AM 64.0 °F - 62.1 °F 93% 30.03 in 4.0 mi Calm Calm - N/A   Clear
5:37 AM 62.6 °F - 60.8 °F 94% 30.05 in 2.0 mi Calm Calm - N/A   Clear
5:54 AM 64.0 °F - 62.1 °F 93% 30.04 in 2.5 mi Calm Calm - N/A   Clear
6:09 AM 64.4 °F - 62.6 °F 94% 30.05 in 4.0 mi Calm Calm - N/A   Clear
6:54 AM 66.9 °F - 64.0 °F 90% 30.05 in 5.0 mi Calm Calm - N/A   Partly Cloudy
7:54 AM 69.1 °F - 64.9 °F 87% 30.06 in 8.0 mi Calm Calm - N/A   Partly Cloudy
8:54 AM 69.1 °F - 66.0 °F 90% 30.05 in 3.0 mi Calm Calm - 0.02 in Rain Light Rain
9:54 AM 72.0 °F - 66.9 °F 84% 30.05 in 8.0 mi Calm Calm - 0.00 in   Mostly Cloudy
10:54 AM 80.1 °F 82.7 °F 68.0 °F 67% 30.04 in 10.0 mi Calm Calm - N/A   Clear
11:54 AM 82.0 °F 85.5 °F 69.1 °F 65% 30.02 in 10.0 mi Calm Calm - N/A   Clear
12:54 PM 84.9 °F 90.1 °F 71.1 °F 63% 30.01 in 10.0 mi Calm Calm - N/A   Clear
1:54 PM 86.0 °F 91.5 °F 71.1 °F 61% 29.98 in 10.0 mi South 3.5 mph - N/A   Partly Cloudy
2:54 PM 88.0 °F 91.4 °F 68.0 °F 51% 29.95 in 10.0 mi WNW 5.8 mph - N/A   Partly Cloudy
3:54 PM 87.1 °F 92.0 °F 70.0 °F 57% 29.94 in 10.0 mi Calm Calm - N/A   Partly Cloudy
4:32 PM 82.4 °F 88.2 °F 73.4 °F 74% 29.96 in 10.0 mi Calm Calm - N/A Thunderstorm Overcast
4:45 PM 78.8 °F - 73.4 °F 83% 29.97 in 1.8 mi SSW 10.4 mph - 0.10 in Rain , Thunderstorm Rain
4:54 PM 78.1 °F - 73.9 °F 87% 29.95 in 1.5 mi South 3.5 mph - 0.14 in Rain , Thunderstorm Rain
4:57 PM 78.8 °F - 73.4 °F 83% 29.96 in 3.0 mi Calm Calm - 0.00 in Rain , Thunderstorm Light Rain
5:47 PM 78.8 °F - 75.2 °F 89% 29.95 in 7.0 mi Calm Calm - 0.00 in   Mostly Cloudy
5:54 PM 80.1 °F 85.1 °F 75.0 °F 85% 29.94 in 9.0 mi NNW 3.5 mph - 0.00 in   Mostly Cloudy
6:54 PM 78.1 °F - 73.9 °F 87% 29.94 in 8.0 mi Calm Calm - N/A   Scattered Clouds
7:54 PM 77.0 °F - 73.9 °F 90% 29.94 in 6.0 mi Calm Calm - N/A   Clear
8:51 PM 75.2 °F - 73.4 °F 94% 29.97 in 7.0 mi Calm Calm - 0.01 in Rain , Thunderstorm Light Rain
8:54 PM 75.9 °F - 73.0 °F 91% 29.96 in 7.0 mi Calm Calm - 0.01 in Thunderstorm Partly Cloudy
9:03 PM 75.2 °F - 73.4 °F 94% 29.98 in 4.0 mi North 3.5 mph - N/A   Scattered Clouds
9:22 PM 75.2 °F - 73.4 °F 94% 29.98 in 7.0 mi Calm Calm - N/A   Mostly Cloudy
9:44 PM 75.2 °F - 73.4 °F 94% 29.98 in 5.0 mi Calm Calm - N/A   Mostly Cloudy
9:54 PM 75.0 °F - 73.0 °F 94% 29.96 in 6.0 mi SSE 3.5 mph - N/A   Scattered Clouds
10:11 PM 75.2 °F - 71.6 °F 89% 29.97 in 7.0 mi Calm Calm - N/A   Mostly Cloudy
10:20 PM 73.4 °F - 71.6 °F 94% 29.97 in 3.0 mi Calm Calm - N/A   Mostly Cloudy
10:24 PM 73.4 °F - 71.6 °F 94% 29.97 in 1.8 mi Calm Calm - N/A   Mostly Cloudy
10:38 PM 73.4 °F - 71.6 °F 94% 29.96 in 1.5 mi Calm Calm - N/A   Scattered Clouds
10:42 PM 73.4 °F - 71.6 °F 94% 29.96 in 3.0 mi Calm Calm - N/A   Scattered Clouds
10:54 PM 73.0 °F - 71.1 °F 93% 29.94 in 4.0 mi Calm Calm - N/A   Partly Cloudy
11:18 PM 73.4 °F - 71.6 °F 94% 29.96 in 2.5 mi Calm Calm - N/A   Scattered Clouds
11:25 PM 73.4 °F - 71.6 °F 94% 29.96 in 4.0 mi Calm Calm - N/A   Mostly Cloudy
11:51 PM 73.4 °F - 71.6 °F 94% 29.97 in 3.0 mi Calm Calm - N/A   Overcast
11:54 PM 73.0 °F - 72.0 °F 96% 29.95 in 4.0 mi Calm Calm - N/A   Overcast